Date String (YYYY-MM-DD hh:mm:ss) UTC,Instrument flags,absolute air pressure of the measurement (hPa),sample flow rate (lpm),inlet stack bypass flow (lpm),air temperature of the measurement (°C),ambient temperature measured by the external sensor (°C),aerosol sample conditioner tube jacket temperature (°C),OPC LED temperature (°C),internal box temperature (°C),relative humidity of the measurement (%),span deviation,mass concentration of particles derived from Lorenz-Mie calculation of OPC scattering (μg/m³),mass concentration of particles derived from Lorenz-Mie calculation of OPC scattering (μg/m³),mass concentration of particles derived from Lorenz-Mie calculation of OPC scattering (μg/m³)
DateTimeUTC,F1_M11,P_M11,Q1_M11,Q2_M11,T1_M11,T2_M11,T3_M11,T4_M11,T5_M11,U1_M11,ZSPAN_M11,X2_M11,X0_M11,X1_M11
2023-09-22 19:00:00,SystemResetWarning,0827.8,4.99,000.00,027.9,026.8,000.0,036.1,029.5,23.9,-001.1,0007.30,0015.81,0006.03
2023-09-22 19:01:00,SystemResetWarning,0827.8,5.00,000.00,027.9,026.9,000.0,036.1,029.6,24.2,-000.5,0007.29,0015.37,0006.02
2023-09-22 19:02:00,SystemResetWarning,0827.7,5.00,000.00,027.9,026.3,000.0,036.1,029.5,24.3,-000.2,0007.28,0015.34,0006.00
2023-09-22 19:03:00,SystemResetWarning,0827.8,5.01,000.00,027.8,025.0,000.0,036.1,029.2,23.8,-000.7,0007.26,0015.35,0005.97
2023-09-22 19:04:00,SystemResetWarning,0827.8,5.01,000.00,027.8,024.9,000.0,036.1,029.2,23.9,-001.4,0007.25,0016.09,0005.95
2023-09-22 19:05:00,SystemResetWarning,0827.7,5.00,000.00,027.7,025.1,000.0,036.1,029.1,24.6,-001.5,0007.14,0015.98,0005.92
2023-09-22 19:06:00,SystemResetWarning,0827.8,4.99,000.00,027.7,025.4,000.0,036.1,029.1,24.4,-000.6,0007.03,0015.61,0005.88
2023-09-22 19:07:00,SystemResetWarning,0827.8,5.00,000.00,027.7,025.7,000.0,036.1,029.2,24.4,0000.2,0006.98,0015.54,0005.83
2023-09-22 19:08:00,SystemResetWarning,0827.8,5.01,000.00,027.8,026.0,000.0,036.1,029.3,25.2,0000.3,0006.92,0015.22,0005.79
2023-09-22 19:09:00,SystemResetWarning,0827.8,5.01,000.00,027.8,026.2,000.0,036.1,029.4,24.7,0000.0,0006.88,0015.08,0005.76
2023-09-22 19:10:00,SystemResetWarning,0827.8,5.00,000.00,027.8,026.4,000.0,036.1,029.5,24.6,0000.1,0006.86,0015.22,0005.71
2023-09-22 19:11:00,SystemResetWarning,0827.8,4.99,000.00,027.8,026.5,000.0,036.1,029.5,24.4,-000.5,0006.88,0015.35,0005.68
2023-09-22 19:12:00,SystemResetWarning,0827.8,4.99,000.00,027.9,026.6,000.0,036.2,029.6,23.7,-000.7,0006.87,0015.53,0005.66
2023-09-22 19:13:00,SystemResetWarning,0827.8,5.00,000.00,027.9,026.7,000.0,036.2,029.7,23.6,-000.9,0006.87,0015.24,0005.64
2023-09-22 19:14:00,SystemResetWarning,0827.8,5.01,000.00,028.0,026.9,000.0,036.2,029.7,23.1,-001.0,0006.87,0015.62,0005.60
2023-09-22 19:15:00,SystemResetWarning,0827.7,5.00,000.00,028.0,027.0,000.0,036.2,029.8,22.8,0000.2,0006.80,0015.58,0005.56
2023-09-22 19:16:00,SystemResetWarning,0827.7,4.99,000.00,028.0,026.2,000.0,036.2,029.7,22.8,0000.9,0006.77,0015.34,0005.52
2023-09-22 19:17:00,SystemResetWarning,0827.7,4.99,000.00,027.9,024.6,000.0,036.2,029.3,22.3,0000.2,0006.78,0015.88,0005.48
2023-09-22 19:18:00,SystemResetWarning,0827.7,5.02,000.00,027.8,024.1,000.0,036.1,029.2,22.0,-000.3,0006.82,0016.01,0005.46
2023-09-22 19:19:00,SystemResetWarning,0827.7,4.99,000.00,027.7,024.3,000.0,036.1,029.1,22.3,0000.0,0006.83,0017.82,0005.45
2023-09-22 19:20:00,SystemResetWarning,0827.7,4.99,000.00,027.7,024.7,000.0,036.1,029.1,22.4,0000.0,0006.78,0018.54,0005.41
2023-09-22 19:21:00,SystemResetWarning,0827.7,5.01,000.00,027.7,025.1,000.0,036.1,029.2,22.0,0000.0,0006.70,0018.70,0005.40
2023-09-22 19:22:00,SystemResetWarning,0827.7,5.02,000.00,027.7,025.5,000.0,036.1,029.3,22.0,0000.0,0006.68,0018.93,0005.37
2023-09-22 19:23:00,SystemResetWarning,0827.7,4.99,000.00,027.7,025.9,000.0,036.1,029.4,22.0,0000.0,0006.63,0019.85,0005.32
2023-09-22 19:24:00,SystemResetWarning,0827.6,4.99,000.00,027.8,026.2,000.0,036.2,029.5,21.8,0000.0,0006.57,0019.77,0005.28
2023-09-22 19:25:00,SystemResetWarning,0827.7,5.00,000.00,027.8,026.4,000.0,036.2,029.6,21.8,0000.0,0006.45,0019.41,0005.25
2023-09-22 19:26:00,SystemResetWarning,0827.7,5.00,000.00,027.9,026.7,000.0,036.2,029.6,21.6,0000.0,0006.42,0018.81,0005.21
2023-09-22 19:27:00,SystemResetWarning,0827.6,5.01,000.00,027.9,026.9,000.0,036.2,029.7,21.3,0000.0,0006.37,0018.25,0005.18
2023-09-22 19:28:00,SystemResetWarning,0827.7,4.99,000.00,028.0,027.0,000.0,036.2,029.8,21.5,0000.0,0006.37,0017.96,0005.14
2023-09-22 19:29:00,SystemResetWarning,0827.6,4.98,000.00,028.0,026.7,000.0,036.2,029.8,21.4,0000.0,0006.34,0017.75,0005.10
2023-09-22 19:30:00,SystemResetWarning,0827.5,5.00,000.00,028.0,025.1,000.0,036.2,029.3,21.7,0000.0,0006.28,0016.69,0005.05
2023-09-22 19:31:00,SystemResetWarning,0827.5,5.00,000.00,027.8,024.1,000.0,036.1,029.2,22.5,0000.0,0006.25,0016.85,0005.02
2023-09-22 19:32:00,SystemResetWarning,0827.5,5.01,000.00,027.8,024.3,000.0,036.1,029.2,22.8,0000.0,0006.22,0016.25,0004.98
2023-09-22 19:33:00,SystemResetWarning,0827.6,5.01,000.00,027.7,024.6,000.0,036.1,029.2,22.8,0000.0,0006.13,0015.87,0004.94
2023-09-22 19:34:00,SystemResetWarning,0827.5,4.98,000.00,027.7,025.0,000.0,036.1,029.3,22.7,0000.0,0006.07,0014.94,0004.93
2023-09-22 19:35:00,SystemResetWarning,0827.6,4.99,000.00,027.7,025.5,000.0,036.1,029.3,22.8,0000.0,0006.07,0014.66,0004.92
2023-09-22 19:36:00,SystemResetWarning,0827.8,5.01,000.00,027.8,025.8,000.0,036.1,029.4,21.7,0000.0,0006.10,0014.83,0004.93
2023-09-22 19:37:00,SystemResetWarning,0827.4,5.01,000.00,027.8,026.2,000.0,036.2,029.5,21.6,0000.0,0006.06,0014.31,0004.93
2023-09-22 19:38:00,SystemResetWarning,0827.4,5.00,000.00,027.8,026.4,000.0,036.2,029.6,21.4,0000.0,0006.07,0014.39,0004.94
2023-09-22 19:39:00,SystemResetWarning,0827.4,4.99,000.00,027.9,026.7,000.0,036.2,029.7,21.9,0000.0,0006.05,0014.09,0004.94
2023-09-22 19:40:00,SystemResetWarning,0827.4,4.99,000.00,027.9,026.9,000.0,036.2,029.8,21.7,0000.0,0006.02,0013.90,0004.96
2023-09-22 19:41:00,SystemResetWarning,0827.4,5.01,000.00,028.0,027.0,000.0,036.3,029.8,22.2,0000.0,0006.07,0014.27,0005.00
2023-09-22 19:42:00,SystemResetWarning,0827.4,4.99,000.00,028.1,027.0,000.0,036.3,029.9,21.7,0000.0,0006.11,0013.88,0005.03
2023-09-22 19:43:00,SystemResetWarning,0827.4,4.99,000.00,028.0,025.7,000.0,036.2,029.5,21.2,0000.0,0006.20,0015.32,0005.07
2023-09-22 19:44:00,SystemResetWarning,0827.4,5.01,000.00,027.9,024.4,000.0,036.2,029.1,21.1,0000.0,0006.29,0015.65,0005.13
2023-09-22 19:45:00,SystemResetWarning,0827.4,5.01,000.00,027.8,024.3,000.0,036.1,029.2,21.3,0000.0,0006.34,0015.95,0005.15
2023-09-22 19:46:00,SystemResetWarning,0827.4,5.00,000.00,027.7,024.6,000.0,036.1,029.2,20.9,0000.0,0006.37,0016.22,0005.15
2023-09-22 19:47:00,SystemResetWarning,0827.4,4.99,000.00,027.7,025.0,000.0,036.1,029.3,21.0,0000.0,0006.41,0016.62,0005.16
2023-09-22 19:48:00,SystemResetWarning,0827.4,5.00,000.00,027.7,025.4,000.0,036.2,029.3,20.5,0000.0,0006.45,0016.79,0005.18
2023-09-22 19:49:00,SystemResetWarning,0827.4,5.00,000.00,027.8,025.8,000.0,036.2,029.4,20.4,-000.0,0006.45,0016.78,0005.20
2023-09-22 19:50:00,SystemResetWarning,0827.4,5.00,000.00,027.8,026.1,000.0,036.2,029.5,20.0,0000.3,0006.46,0017.64,0005.21
2023-09-22 19:51:00,SystemResetWarning,0827.4,4.99,000.00,027.9,026.4,000.0,036.2,029.6,20.2,0001.0,0006.45,0018.94,0005.20
2023-09-22 19:52:00,SystemResetWarning,0827.4,4.99,000.00,027.9,026.7,000.0,036.2,029.7,20.4,0001.2,0006.40,0019.05,0005.19
2023-09-22 19:53:00,SystemResetWarning,0827.4,5.00,000.00,028.0,026.9,000.0,036.2,029.8,20.3,0001.0,0006.38,0019.04,0005.17
2023-09-22 19:54:00,SystemResetWarning,0827.4,5.00,000.00,028.0,027.1,000.0,036.3,029.9,20.5,0001.1,0006.33,0018.35,0005.15
2023-09-22 19:55:00,SystemResetWarning,0827.4,5.01,000.00,028.1,027.2,000.0,036.3,030.0,19.8,0000.7,0006.27,0019.03,0005.11
2023-09-22 19:56:00,SystemResetWarning,0827.3,4.98,000.00,028.1,026.3,000.0,036.3,029.8,19.6,0000.1,0006.23,0019.07,0005.08
2023-09-22 19:57:00,SystemResetWarning,0827.3,5.00,000.00,028.0,024.5,000.0,036.2,029.4,19.5,-000.8,0006.21,0019.81,0005.05
2023-09-22 19:58:00,SystemResetWarning,0827.2,5.01,000.00,027.9,024.2,000.0,036.1,029.3,20.2,-001.0,0006.18,0020.67,0005.03
2023-09-22 19:59:00,SystemResetWarning,0827.2,5.01,000.00,027.8,024.4,000.0,036.1,029.3,19.9,-001.0,0006.23,0021.03,0005.01
